SM4TYA-13 Weather Reports


time (UTC)temp
F
wind
direction
speed
knots
gust
knots
rain 1hr
in
rain 24hr
in
rain mn
in
humidity
%
barometer
mb
20260502231836 44 191 2.6 8.7 0.00 0.02 0.00 76 1009.7
20260502230935 44 185 1.7 7.0 0.00 0.02 0.00 77 1009.7
20260502230035 44 200 1.7 7.0 0.00 0.02 0.00 76 1009.6
20260502225136 45 173 3.5 8.7 0.00 0.02 0.00 76 1009.5
20260502224236 45 183 5.2 10.4 0.00 0.02 0.00 75 1009.4
20260502223336 46 178 4.3 9.6 0.00 0.02 0.00 76 1009.2
20260502222649 46 167 2.6 6.1 0.00 0.02 0.00 76 1009.1
20260502221747 47 194 6.1 13.9 0.00 0.02 0.00 76 1008.9
20260502220636 47 192 6.1 12.2 0.00 0.02 0.00 75 1008.9
20260502215946 48 185 5.2 11.3 0.00 0.02 0.02 75 1008.6
20260502214836 49 173 4.3 14.8 0.00 0.02 0.02 76 1008.4
20260502213936 49 168 4.3 12.2 0.00 0.02 0.02 76 1008.1
20260502213036 49 142 2.6 6.1 0.00 0.02 0.02 77 1008.0
20260502212135 48 89 0.9 1.7 0.00 0.02 0.02 81 1007.8
20260502211236 48 25 0.0 0.9 0.00 0.02 0.02 81 1007.6
20260502210336 48 25 0.0 0.9 0.00 0.02 0.02 81 1007.7
20260502205436 49 25 0.0 1.7 0.00 0.02 0.02 80 1007.6
20260502204536 49 26 0.0 0.9 0.00 0.02 0.02 79 1007.5
20260502203847 49 25 0.0 0.9 0.00 0.02 0.02 78 1007.4
20260502202736 50 25 0.0 1.7 0.00 0.02 0.02 76 1007.3
20260502201836 50 25 0.0 1.7 0.00 0.02 0.02 75 1007.1
20260502200935 50 20 0.9 2.6 0.00 0.02 0.02 75 1007.2
20260502200036 50 212 0.0 2.6 0.00 0.02 0.02 75 1007.3
20260502195136 50 48 0.9 1.7 0.00 0.02 0.02 75 1007.2
20260502194236 50 53 0.9 2.6 0.00 0.02 0.02 75 1007.2
20260502193336 50 336 0.9 1.7 0.01 0.02 0.02 75 1007.3
20260502192436 51 1 1.7 4.3 0.01 0.02 0.02 74 1007.3
20260502191536 51 62 0.9 4.3 0.01 0.02 0.02 74 1007.4
20260502190636 51 31 0.9 3.5 0.01 0.02 0.02 75 1007.4
20260502185736 51 52 1.7 5.2 0.02 0.02 0.02 75 1007.4
20260502184835 51 26 1.7 4.3 0.02 0.02 0.02 76 1007.3
20260502183936 51 9 1.7 4.3 0.02 0.02 0.02 76 1007.3
20260502183035 51 13 0.9 3.5 0.01 0.01 0.01 77 1007.4
20260502182135 51 48 0.0 1.7 0.01 0.01 0.01 77 1007.5
20260502181445 52 34 0.0 1.7 0.01 0.01 0.01 75 1007.5
20260502180547 53 66 0.9 2.6 0.01 0.01 0.01 68 1007.5
20260502164236 57 41 0.9 2.6 0.00 0.00 0.00 52 1007.3
20260502163336 58 32 1.7 4.3 0.00 0.00 0.00 52 1007.3
20260502162436 58 67 1.7 6.1 0.00 0.00 0.00 51 1007.2
20260502161536 58 81 1.7 6.1 0.00 0.00 0.00 51 1007.2
20260502160848 58 109 2.6 6.1 0.00 0.00 0.00 50 1007.3
20260502152136 59 129 1.7 6.1 0.00 0.00 0.00 48 1007.4
20260502151236 60 116 1.7 5.2 0.00 0.00 0.00 47 1007.5
20260502150549 60 124 1.7 5.2 0.00 0.00 0.00 46 1007.5
20260502123249 66 110 4.3 9.6 0.00 0.00 0.00 33 1007.5
20260502122135 68 121 4.3 11.3 0.00 0.00 0.00 32 1007.5
20260502121448 67 108 3.5 8.7 0.00 0.00 0.00 33 1007.6
20260502120546 67 96 2.6 7.0 0.00 0.00 0.00 32 1007.5
20260502115648 67 92 4.3 10.4 0.00 0.00 0.00 31 1007.7
20260502114536 68 68 3.5 9.6 0.00 0.00 0.00 30 1007.6
20260502113636 67 59 4.3 12.2 0.00 0.00 0.00 32 1007.7
20260502112945 68 51 4.3 12.2 0.00 0.00 0.00 32 1007.8
20260502112048 67 35 4.3 16.5 0.00 0.00 0.00 33 1007.9
20260502110935 67 59 3.5 12.2 0.00 0.00 0.00 33 1008.0
20260502110036 66 17 4.3 10.4 0.00 0.00 0.00 34 1008.4
20260502105135 65 38 3.5 7.8 0.00 0.00 0.00 35 1008.4
20260502104236 65 54 4.3 11.3 0.00 0.00 0.00 35 1008.5
20260502103336 66 44 5.2 11.3 0.00 0.00 0.00 35 1008.4
20260502102436 66 61 6.1 13.0 0.00 0.00 0.00 33 1008.6
20260502101536 68 12 6.1 15.6 0.00 0.00 0.00 33 1008.5
20260502100636 67 37 4.3 10.4 0.00 0.00 0.00 33 1008.6
20260502091236 64 39 4.3 13.0 0.00 0.00 0.00 36 1009.1
20260502090336 64 95 4.3 10.4 0.00 0.00 0.00 35 1009.1
20260502070636 59 75 2.6 7.0 0.00 0.00 0.00 45 1010.1
20260502065735 59 47 2.6 10.4 0.00 0.00 0.00 47 1010.2
20260502065048 59 55 2.6 8.7 0.00 0.00 0.00 48 1010.2
20260502063936 57 51 3.5 9.6 0.00 0.00 0.00 50 1010.2
20260502063036 57 74 4.3 9.6 0.00 0.00 0.00 51 1010.3
20260502062136 56 70 3.5 9.6 0.00 0.00 0.00 52 1010.5
20260502061235 56 63 2.6 7.8 0.00 0.00 0.00 53 1010.6
20260502060335 55 66 2.6 7.8 0.00 0.00 0.00 54 1010.7
20260502055436 55 60 3.5 7.8 0.00 0.00 0.00 55 1010.7
20260502054536 54 71 2.6 8.7 0.00 0.00 0.00 56 1010.8
20260502053636 54 27 3.5 8.7 0.00 0.00 0.00 58 1010.8
20260502052736 54 24 3.5 7.8 0.00 0.00 0.00 59 1010.8
20260502051836 53 52 2.6 5.2 0.00 0.00 0.00 60 1010.7
20260502050935 54 54 0.0 1.7 0.00 0.00 0.00 61 1010.8
20260502050036 53 44 0.0 1.7 0.00 0.00 0.00 61 1010.8
20260502045348 52 79 0.0 4.3 0.00 0.00 0.00 62 1010.8
20260502044236 51 13 0.0 1.7 0.00 0.00 0.00 63 1011.0
20260502043336 50 16 0.9 2.6 0.00 0.00 0.00 65 1010.9
20260502042645 50 9 0.9 3.5 0.00 0.00 0.00 67 1010.9
20260502041536 48 360 1.7 3.5 0.00 0.00 0.00 69 1011.0
20260502040636 46 7 0.9 3.5 0.00 0.00 0.00 71 1011.0
20260502035736 46 30 0.9 1.7 0.00 0.00 0.00 72 1011.2
20260502034836 45 30 0.9 1.7 0.00 0.00 0.00 73 1011.2
20260502033936 45 31 0.9 2.6 0.00 0.00 0.00 74 1011.2
20260502033035 44 34 0.9 1.7 0.00 0.00 0.00 75 1011.4
20260502032136 43 15 0.0 0.9 0.00 0.00 0.00 75 1011.4
20260502031449 43 15 0.0 0.9 0.00 0.00 0.00 74 1011.4
20260502030336 44 16 0.9 2.6 0.00 0.00 0.00 73 1011.6
20260502025435 44 28 1.7 3.5 0.00 0.00 0.00 73 1011.5
20260502024536 44 33 0.9 2.6 0.00 0.00 0.00 73 1011.7
20260502023636 45 45 0.9 2.6 0.00 0.00 0.00 73 1011.8
20260502022736 45 47 0.9 2.6 0.00 0.00 0.00 71 1011.7
20260502022048 46 48 0.9 2.6 0.00 0.00 0.00 70 1011.7
20260502021146 46 2 0.9 4.3 0.00 0.00 0.00 68 1011.8
20260502020036 47 8 1.7 4.3 0.00 0.00 0.00 68 1011.9
20260502015135 47 38 0.9 2.6 0.00 0.00 0.00 68 1012.1
20260502014236 48 22 0.9 1.7 0.00 0.00 0.00 67 1012.2
20260502013335 49 18 0.9 1.7 0.00 0.00 0.00 65 1012.4
20260502012436 50 12 0.9 3.5 0.00 0.00 0.00 64 1012.5
20260502011535 51 1 2.6 7.0 0.00 0.00 0.00 63 1012.6
20260502010636 50 20 1.7 6.1 0.00 0.00 0.00 63 1012.6
20260502005736 50 22 0.9 3.5 0.00 0.00 0.00 63 1012.6
20260502004836 51 360 2.6 5.2 0.00 0.00 0.00 62 1012.6
20260502003936 52 3 1.7 4.3 0.00 0.00 0.00 61 1012.8
20260502003036 52 8 1.7 5.2 0.00 0.00 0.00 60 1012.8
20260502002349 52 23 1.7 5.2 0.00 0.00 0.00 59 1012.9
20260502001236 53 12 2.6 6.1 0.00 0.00 0.00 58 1012.9
20260502000336 53 11 2.6 7.0 0.00 0.00 0.00 58 1013.0
20260501235646 54 16 3.5 7.0 0.00 0.00 0.00 57 1013.1
20260501234536 54 25 1.7 4.3 0.00 0.00 0.00 56 1013.0
20260501233845 54 12 1.7 5.2 0.00 0.00 0.00 56 1013.1
20260501232735 54 19 1.7 6.1 0.00 0.00 0.00 55 1013.2